View from above orbital plane
|
View from above satellite
|
Ground track
|
The orbit data is extracted from the following two-line orbital elements,
1 19120U 88039B 21059.03866022 .00000091 00000-0 66388-4 0 9990
2 19120 71.0175 348.4588 0024295 274.6980 85.1370 14.19218711698185
Epoch (UTC): | 28 February 2021 00:55:40 |
Eccentricity: | 0.0024295 |
inclination: | 71.0175° |
perigee height: | 810 km |
apogee height: | 845 km |
right ascension of ascending node: | 348.4588° |
argument of perigee: | 274.6980° |
revolutions per day: | 14.19218711 |
mean anomaly at epoch: | 85.1370° |
orbit number at epoch: | 69818 |
The dashed part of the orbit path shows where the satellite is in the earth's shadow,
|
|